Time,TemperatureF,DewpointF,PressureIn,WindDirection,WindDirectionDegrees,WindSpeedMPH,WindSpeedGustMPH,Humidity,HourlyPrecipIn,Conditions,Clouds,dailyrainin,SoftwareType,DateUTC
2013-02-06 00:01:00,18.2,15.3,30.07,North,354,0.0,0.0,88,-99.99,,,0.00,1-wire,2013-02-06 06:01:00,
2013-02-06 00:06:00,18.0,15.1,30.08,North,350,0.0,0.0,88,-99.99,,,0.00,1-wire,2013-02-06 06:06:00,
2013-02-06 00:11:00,17.6,15.2,30.08,North,350,0.0,0.0,90,-99.99,,,0.00,1-wire,2013-02-06 06:11:00,
2013-02-06 00:16:00,17.9,15.3,30.08,North,350,0.0,0.0,89,-99.99,,,0.00,1-wire,2013-02-06 06:16:00,
2013-02-06 00:21:00,17.2,14.9,30.08,NNW,338,0.0,0.0,90,-99.99,,,0.00,1-wire,2013-02-06 06:21:00,
2013-02-06 00:26:00,16.9,14.6,30.08,NNW,338,0.0,0.0,90,-99.99,,,0.00,1-wire,2013-02-06 06:26:00,
2013-02-06 00:31:00,16.9,14.5,30.08,NNW,338,0.0,0.0,90,-99.99,,,0.00,1-wire,2013-02-06 06:31:00,
2013-02-06 00:36:00,16.7,14.3,30.08,NNW,340,0.0,0.0,90,-99.99,,,0.00,1-wire,2013-02-06 06:36:00,
2013-02-06 00:41:00,16.6,14.3,30.08,NNW,340,0.0,0.0,90,-99.99,,,0.00,1-wire,2013-02-06 06:41:00,
2013-02-06 00:46:00,16.6,14.2,30.08,NNW,340,0.0,0.0,90,-99.99,,,0.00,1-wire,2013-02-06 06:46:00,
2013-02-06 00:51:00,15.2,13.6,30.09,NNW,342,0.0,0.0,93,-99.99,,,0.00,1-wire,2013-02-06 06:51:00,
2013-02-06 00:56:00,15.5,13.9,30.10,NNW,342,0.0,0.0,93,-99.99,,,0.00,1-wire,2013-02-06 06:56:00,
2013-02-06 01:01:00,15.4,13.6,30.09,NNW,342,0.0,0.0,92,-99.99,,,0.00,1-wire,2013-02-06 07:01:00,
2013-02-06 01:06:00,15.3,13.5,30.10,NNW,348,0.0,0.0,92,-99.99,,,0.00,1-wire,2013-02-06 07:06:00,
2013-02-06 01:11:00,14.6,13.1,30.09,NNW,348,0.0,0.0,94,-99.99,,,0.00,1-wire,2013-02-06 07:11:00,
2013-02-06 01:16:00,14.6,13.1,30.09,NNW,348,0.0,0.0,94,-99.99,,,0.00,1-wire,2013-02-06 07:16:00,
2013-02-06 01:22:00,14.0,12.9,30.09,NNE,15,0.0,0.0,95,-99.99,,,0.00,1-wire,2013-02-06 07:22:00,
2013-02-06 01:27:00,14.0,12.9,30.10,NNE,15,0.0,0.0,95,-99.99,,,0.00,1-wire,2013-02-06 07:27:00,
2013-02-06 01:33:00,13.9,12.7,30.10,NNE,15,0.0,0.0,95,-99.99,,,0.00,1-wire,2013-02-06 07:33:00,
2013-02-06 01:38:00,14.3,12.9,30.10,NNE,30,0.0,0.0,94,-99.99,,,0.00,1-wire,2013-02-06 07:38:00,
2013-02-06 01:43:00,13.2,12.1,30.10,NNE,30,0.0,0.0,95,-99.99,,,0.00,1-wire,2013-02-06 07:43:00,
2013-02-06 01:49:00,12.8,11.9,30.10,NNE,30,0.0,0.0,96,-99.99,,,0.00,1-wire,2013-02-06 07:49:00,
2013-02-06 01:54:00,13.1,12.2,30.10,NNE,25,0.0,0.0,96,-99.99,,,0.00,1-wire,2013-02-06 07:54:00,
2013-02-06 02:00:00,13.0,12.1,30.10,NNE,25,0.0,0.0,96,-99.99,,,0.00,1-wire,2013-02-06 08:00:00,
2013-02-06 02:05:00,12.7,11.8,30.10,NNE,25,0.0,0.0,96,-99.99,,,0.00,1-wire,2013-02-06 08:05:00,
2013-02-06 02:10:00,12.6,11.6,30.10,NNE,27,0.0,0.0,96,-99.99,,,0.00,1-wire,2013-02-06 08:10:00,
2013-02-06 02:15:00,12.8,11.8,30.10,NNE,27,0.0,0.0,96,-99.99,,,0.00,1-wire,2013-02-06 08:15:00,
2013-02-06 02:20:00,11.9,11.3,30.10,NNE,27,0.0,0.0,97,-99.99,,,0.00,1-wire,2013-02-06 08:20:00,
2013-02-06 02:25:00,12.1,11.4,30.10,NNE,25,0.0,0.0,97,-99.99,,,0.00,1-wire,2013-02-06 08:25:00,
2013-02-06 02:30:00,11.8,11.2,30.11,NNE,25,0.0,3.0,98,-99.99,,,0.00,1-wire,2013-02-06 08:30:00,
2013-02-06 02:36:00,12.1,11.3,30.11,North,358,0.0,0.0,96,-99.99,,,0.00,1-wire,2013-02-06 08:36:00,
2013-02-06 02:41:00,11.7,10.6,30.11,North,358,0.0,0.0,95,-99.99,,,0.00,1-wire,2013-02-06 08:41:00,
2013-02-06 02:46:00,11.7,10.5,30.12,North,358,0.0,0.0,95,-99.99,,,0.00,1-wire,2013-02-06 08:46:00,
2013-02-06 02:51:00,11.4,10.5,30.12,NNW,347,0.0,0.0,96,-99.99,,,0.00,1-wire,2013-02-06 08:51:00,
2013-02-06 02:56:00,11.5,10.5,30.12,NNW,347,0.0,0.0,96,-99.99,,,0.00,1-wire,2013-02-06 08:56:00,
2013-02-06 03:01:00,11.5,10.4,30.12,NNW,347,0.0,0.0,95,-99.99,,,0.00,1-wire,2013-02-06 09:01:00,
2013-02-06 03:06:00,11.2,10.0,30.12,NNE,28,0.0,0.0,95,-99.99,,,0.00,1-wire,2013-02-06 09:06:00,
2013-02-06 03:11:00,11.1,9.9,30.12,NNE,28,0.0,0.0,95,-99.99,,,0.00,1-wire,2013-02-06 09:11:00,
2013-02-06 03:16:00,11.3,10.1,30.11,NNE,28,0.0,0.0,95,-99.99,,,0.00,1-wire,2013-02-06 09:16:00,
2013-02-06 03:21:00,11.4,10.2,30.12,NNE,22,0.0,0.0,95,-99.99,,,0.00,1-wire,2013-02-06 09:21:00,
2013-02-06 03:26:00,10.8,10.0,30.12,NNE,22,0.0,0.0,96,-99.99,,,0.00,1-wire,2013-02-06 09:26:00,
2013-02-06 03:31:00,10.8,10.0,30.12,NNE,22,0.0,0.0,97,-99.99,,,0.00,1-wire,2013-02-06 09:31:00,
2013-02-06 03:36:00,10.6,9.8,30.12,North,2,0.0,0.0,97,-99.99,,,0.00,1-wire,2013-02-06 09:36:00,
2013-02-06 03:41:00,10.5,9.7,30.12,North,2,0.0,0.0,97,-99.99,,,0.00,1-wire,2013-02-06 09:41:00,
2013-02-06 03:46:00,10.3,9.8,30.12,North,2,0.0,0.0,98,-99.99,,,0.00,1-wire,2013-02-06 09:46:00,
2013-02-06 03:51:00,10.8,10.2,30.12,North,352,0.0,0.0,97,-99.99,,,0.00,1-wire,2013-02-06 09:51:00,
2013-02-06 03:56:00,11.0,10.1,30.12,North,352,0.0,0.0,96,-99.99,,,0.00,1-wire,2013-02-06 09:56:00,
2013-02-06 04:01:00,11.0,10.1,30.11,North,352,0.0,0.0,96,-99.99,,,0.00,1-wire,2013-02-06 10:01:00,
2013-02-06 04:06:00,10.8,9.7,30.11,NNE,28,0.0,0.0,95,-99.99,,,0.00,1-wire,2013-02-06 10:06:00,
2013-02-06 04:11:00,11.0,9.8,30.10,NNE,28,0.0,0.0,95,-99.99,,,0.00,1-wire,2013-02-06 10:11:00,
2013-02-06 04:16:00,10.4,9.3,30.10,NNE,28,0.0,0.0,95,-99.99,,,0.00,1-wire,2013-02-06 10:16:00,
2013-02-06 04:21:00,10.2,9.1,30.10,NNE,30,0.0,0.0,95,-99.99,,,0.00,1-wire,2013-02-06 10:21:00,
2013-02-06 04:26:00,10.0,9.2,30.10,NNE,30,0.0,0.0,97,-99.99,,,0.00,1-wire,2013-02-06 10:26:00,
2013-02-06 04:31:00,10.0,9.3,30.11,NNE,30,0.0,0.0,97,-99.99,,,0.00,1-wire,2013-02-06 10:31:00,
2013-02-06 04:37:00,10.1,9.0,30.11,NNE,30,0.0,0.0,95,-99.99,,,0.00,1-wire,2013-02-06 10:37:00,
2013-02-06 04:42:00,9.8,8.9,30.11,NNE,30,0.0,0.0,96,-99.99,,,0.00,1-wire,2013-02-06 10:42:00,
2013-02-06 04:47:00,9.6,8.9,30.11,NNE,30,0.0,0.0,97,-99.99,,,0.00,1-wire,2013-02-06 10:47:00,
2013-02-06 04:52:00,9.7,9.1,30.11,NNE,27,0.0,0.0,97,-99.99,,,0.00,1-wire,2013-02-06 10:52:00,
2013-02-06 04:57:00,8.9,8.3,30.12,NNE,27,0.0,0.0,97,-99.99,,,0.00,1-wire,2013-02-06 10:57:00,
2013-02-06 05:03:00,9.1,8.6,30.12,NNE,27,0.0,0.0,97,-99.99,,,0.00,1-wire,2013-02-06 11:03:00,
2013-02-06 05:08:00,9.6,8.6,30.12,North,5,0.0,0.0,96,-99.99,,,0.00,1-wire,2013-02-06 11:08:00,
2013-02-06 05:14:00,9.3,8.3,30.14,North,5,0.0,0.0,96,-99.99,,,0.00,1-wire,2013-02-06 11:14:00,
2013-02-06 05:20:00,9.4,8.3,30.13,North,5,0.0,0.0,95,-99.99,,,0.00,1-wire,2013-02-06 11:20:00,
2013-02-06 05:25:00,9.0,8.0,30.12,NNW,344,0.0,0.0,96,-99.99,,,0.00,1-wire,2013-02-06 11:25:00,
2013-02-06 05:31:00,8.8,7.9,30.12,NNW,344,0.0,0.0,96,-99.99,,,0.00,1-wire,2013-02-06 11:31:00,
2013-02-06 05:36:00,8.6,8.0,30.12,North,3,0.0,0.0,97,-99.99,,,0.00,1-wire,2013-02-06 11:36:00,
2013-02-06 05:42:00,8.9,8.0,30.12,North,3,0.0,0.0,96,-99.99,,,0.00,1-wire,2013-02-06 11:42:00,
2013-02-06 05:48:00,8.5,7.7,30.12,North,3,0.0,0.0,96,-99.99,,,0.00,1-wire,2013-02-06 11:48:00,
2013-02-06 05:53:00,8.4,7.8,30.12,North,8,0.0,0.0,98,-99.99,,,0.00,1-wire,2013-02-06 11:53:00,
2013-02-06 05:59:00,8.7,7.9,30.12,North,8,0.0,0.0,97,-99.99,,,0.00,1-wire,2013-02-06 11:59:00,
2013-02-06 06:04:00,8.6,7.6,30.12,North,8,0.0,0.0,96,-99.99,,,0.00,1-wire,2013-02-06 12:04:00,
2013-02-06 06:09:00,8.3,7.5,30.11,NNE,15,0.0,0.0,97,-99.99,,,0.00,1-wire,2013-02-06 12:09:00,
2013-02-06 06:14:00,8.4,7.5,30.11,NNE,15,0.0,0.0,96,-99.99,,,0.00,1-wire,2013-02-06 12:14:00,
2013-02-06 06:19:00,8.5,7.8,30.12,NNE,15,0.0,0.0,97,-99.99,,,0.00,1-wire,2013-02-06 12:19:00,
2013-02-06 06:25:00,8.0,7.3,30.12,NNE,14,0.0,0.0,97,-99.99,,,0.00,1-wire,2013-02-06 12:25:00,
2013-02-06 06:30:00,8.4,7.6,30.12,NNE,14,0.0,0.0,96,-99.99,,,0.00,1-wire,2013-02-06 12:30:00,
2013-02-06 06:35:00,8.6,7.7,30.12,NNE,14,0.0,0.0,96,-99.99,,,0.00,1-wire,2013-02-06 12:35:00,
2013-02-06 06:40:00,7.8,7.2,30.13,NNE,14,0.0,0.0,97,-99.99,,,0.00,1-wire,2013-02-06 12:40:00,
2013-02-06 06:45:00,7.8,7.3,30.13,NNE,14,0.0,0.0,98,-99.99,,,0.00,1-wire,2013-02-06 12:45:00,
2013-02-06 06:50:00,8.3,7.5,30.13,NNE,14,0.0,0.0,97,-99.99,,,0.00,1-wire,2013-02-06 12:50:00,
2013-02-06 06:55:00,8.0,7.3,30.14,North,4,0.0,0.0,97,-99.99,,,0.00,1-wire,2013-02-06 12:55:00,
2013-02-06 07:01:00,8.3,7.5,30.14,North,4,0.0,0.0,96,-99.99,,,0.00,1-wire,2013-02-06 13:01:00,
2013-02-06 07:06:00,8.6,7.7,30.14,North,354,0.0,0.0,96,-99.99,,,0.00,1-wire,2013-02-06 13:06:00,
2013-02-06 07:11:00,8.7,7.9,30.15,North,354,0.0,0.0,97,-99.99,,,0.00,1-wire,2013-02-06 13:11:00,
2013-02-06 07:16:00,8.2,7.6,30.15,North,354,0.0,0.0,97,-99.99,,,0.00,1-wire,2013-02-06 13:16:00,
2013-02-06 07:21:00,8.8,8.0,30.15,NNW,342,0.0,0.0,96,-99.99,,,0.00,1-wire,2013-02-06 13:21:00,
2013-02-06 07:26:00,9.0,8.2,30.15,NNW,342,0.0,0.0,97,-99.99,,,0.00,1-wire,2013-02-06 13:26:00,
2013-02-06 07:31:00,9.0,8.2,30.15,NNW,342,0.0,0.0,96,-99.99,,,0.00,1-wire,2013-02-06 13:31:00,
2013-02-06 07:36:00,9.2,8.1,30.15,North,349,0.0,0.0,95,-99.99,,,0.00,1-wire,2013-02-06 13:36:00,
2013-02-06 07:41:00,9.0,8.2,30.16,North,349,0.0,0.0,96,-99.99,,,0.00,1-wire,2013-02-06 13:41:00,
2013-02-06 07:46:00,9.3,8.6,30.16,North,349,0.0,0.0,97,-99.99,,,0.00,1-wire,2013-02-06 13:46:00,
2013-02-06 07:51:00,9.9,9.1,30.16,NNW,345,0.0,0.0,96,-99.99,,,0.00,1-wire,2013-02-06 13:51:00,
2013-02-06 07:57:00,10.1,9.5,30.16,NNW,345,0.0,0.0,97,-99.99,,,0.00,1-wire,2013-02-06 13:57:00,
2013-02-06 08:02:00,10.6,9.9,30.16,NNW,345,0.0,0.0,97,-99.99,,,0.00,1-wire,2013-02-06 14:02:00,
2013-02-06 08:07:00,11.3,10.5,30.16,NNW,345,0.0,0.0,97,-99.99,,,0.00,1-wire,2013-02-06 14:07:00,
2013-02-06 08:12:00,12.0,11.1,30.16,NNW,345,0.0,0.0,96,-99.99,,,0.00,1-wire,2013-02-06 14:12:00,
2013-02-06 08:17:00,12.7,12.0,30.17,NNW,345,0.0,3.0,97,-99.99,,,0.00,1-wire,2013-02-06 14:17:00,
2013-02-06 08:23:00,14.2,13.4,30.16,North,353,0.0,0.0,96,-99.99,,,0.00,1-wire,2013-02-06 14:23:00,
2013-02-06 08:28:00,15.6,14.6,30.16,North,353,0.0,0.0,96,-99.99,,,0.00,1-wire,2013-02-06 14:28:00,
2013-02-06 08:33:00,16.8,15.3,30.16,North,353,0.0,3.0,94,-99.99,,,0.00,1-wire,2013-02-06 14:33:00,
2013-02-06 08:39:00,17.7,15.4,30.15,North,3,3.0,11.0,90,-99.99,,,0.00,1-wire,2013-02-06 14:39:00,
2013-02-06 08:44:00,18.9,15.8,30.16,North,3,2.0,6.0,88,-99.99,,,0.00,1-wire,2013-02-06 14:44:00,
2013-02-06 08:49:00,18.7,15.2,30.16,North,3,1.0,10.0,86,-99.99,,,0.00,1-wire,2013-02-06 14:49:00,
2013-02-06 08:54:00,19.4,15.5,30.16,North,2,2.0,6.0,84,-99.99,,,0.00,1-wire,2013-02-06 14:54:00,
2013-02-06 08:59:00,19.6,15.3,30.16,North,2,1.0,6.0,83,-99.99,,,0.00,1-wire,2013-02-06 14:59:00,
2013-02-06 09:04:00,19.9,15.3,30.16,North,2,1.0,5.0,82,-99.99,,,0.00,1-wire,2013-02-06 15:04:00,
2013-02-06 09:09:00,20.3,15.2,30.15,North,358,1.0,3.0,80,-99.99,,,0.00,1-wire,2013-02-06 15:09:00,
2013-02-06 09:14:00,20.4,15.2,30.15,North,358,4.0,9.0,80,-99.99,,,0.00,1-wire,2013-02-06 15:14:00,
2013-02-06 09:19:00,20.7,15.3,30.16,North,358,1.0,3.0,79,-99.99,,,0.00,1-wire,2013-02-06 15:19:00,
2013-02-06 09:24:00,21.7,15.7,30.17,North,353,2.0,3.0,77,-99.99,,,0.00,1-wire,2013-02-06 15:24:00,
2013-02-06 09:29:00,22.1,15.9,30.18,North,353,4.0,6.0,76,-99.99,,,0.00,1-wire,2013-02-06 15:29:00,
2013-02-06 09:34:00,23.2,16.2,30.18,North,353,2.0,5.0,74,-99.99,,,0.00,1-wire,2013-02-06 15:34:00,
2013-02-06 09:39:00,23.4,15.7,30.18,NNW,331,2.0,6.0,72,-99.99,,,0.00,1-wire,2013-02-06 15:39:00,
2013-02-06 09:44:00,24.0,15.9,30.18,NNW,331,0.0,0.0,71,-99.99,,,0.00,1-wire,2013-02-06 15:44:00,
2013-02-06 09:49:00,24.4,15.6,30.18,NNW,331,2.0,4.0,69,-99.99,,,0.00,1-wire,2013-02-06 15:49:00,
2013-02-06 09:54:00,25.0,16.2,30.18,NNW,335,1.0,3.0,69,-99.99,,,0.00,1-wire,2013-02-06 15:54:00,
2013-02-06 09:59:00,25.1,16.1,30.17,NNW,335,2.0,6.0,68,-99.99,,,0.00,1-wire,2013-02-06 15:59:00,
2013-02-06 10:04:00,25.5,16.4,30.16,NNW,335,5.0,9.0,68,-99.99,,,0.00,1-wire,2013-02-06 16:04:00,
2013-02-06 10:09:00,25.8,16.4,30.16,SSE,154,0.0,3.0,67,-99.99,,,0.00,1-wire,2013-02-06 16:09:00,
2013-02-06 10:14:00,26.0,16.2,30.16,SSE,154,2.0,6.0,66,-99.99,,,0.00,1-wire,2013-02-06 16:14:00,
2013-02-06 10:19:00,26.0,15.5,30.16,SSE,154,2.0,6.0,64,-99.99,,,0.00,1-wire,2013-02-06 16:19:00,
2013-02-06 10:24:00,26.3,16.2,30.17,South,169,2.0,6.0,65,-99.99,,,0.00,1-wire,2013-02-06 16:24:00,
2013-02-06 10:29:00,26.6,16.0,30.17,South,169,1.0,3.0,64,-99.99,,,0.00,1-wire,2013-02-06 16:29:00,
2013-02-06 10:35:00,26.7,16.0,30.16,South,169,3.0,6.0,64,-99.99,,,0.00,1-wire,2013-02-06 16:35:00,
2013-02-06 10:40:00,27.6,16.4,30.16,South,169,3.0,6.0,62,-99.99,,,0.00,1-wire,2013-02-06 16:40:00,
2013-02-06 10:46:00,29.1,16.6,30.16,South,169,1.0,7.0,59,-99.99,,,0.00,1-wire,2013-02-06 16:46:00,
2013-02-06 10:51:00,29.4,16.7,30.16,SSE,164,2.0,6.0,59,-99.99,,,0.00,1-wire,2013-02-06 16:51:00,
2013-02-06 10:56:00,29.5,17.4,30.16,SSE,164,2.0,6.0,60,-99.99,,,0.00,1-wire,2013-02-06 16:56:00,
2013-02-06 11:01:00,28.7,16.7,30.16,SSE,164,1.0,3.0,60,-99.99,,,0.00,1-wire,2013-02-06 17:01:00,
2013-02-06 11:06:00,27.3,16.8,30.16,SSE,166,1.0,3.0,64,-99.99,,,0.00,1-wire,2013-02-06 17:06:00,
2013-02-06 11:11:00,26.9,17.0,30.16,SSE,166,4.0,8.0,66,-99.99,,,0.00,1-wire,2013-02-06 17:11:00,
2013-02-06 11:17:00,26.1,16.5,30.15,SSE,166,3.0,6.0,67,-99.99,,,0.00,1-wire,2013-02-06 17:17:00,
2013-02-06 11:22:00,26.2,17.3,30.16,SSE,166,3.0,6.0,68,-99.99,,,0.00,1-wire,2013-02-06 17:22:00,
2013-02-06 11:27:00,26.5,17.1,30.16,SSE,166,2.0,6.0,67,-99.99,,,0.00,1-wire,2013-02-06 17:27:00,
2013-02-06 11:32:00,26.8,16.9,30.16,SSE,166,1.0,5.0,66,-99.99,,,0.00,1-wire,2013-02-06 17:32:00,
2013-02-06 11:37:00,27.3,17.7,30.16,South,174,2.0,6.0,67,-99.99,,,0.00,1-wire,2013-02-06 17:37:00,
2013-02-06 11:42:00,26.9,17.5,30.15,South,174,3.0,11.0,67,-99.99,,,0.00,1-wire,2013-02-06 17:42:00,
2013-02-06 11:48:00,26.6,17.4,30.15,South,174,3.0,6.0,68,-99.99,,,0.00,1-wire,2013-02-06 17:48:00,
2013-02-06 11:53:00,27.2,17.6,30.15,South,182,1.0,5.0,67,-99.99,,,0.00,1-wire,2013-02-06 17:53:00,
2013-02-06 11:58:00,27.3,17.8,30.15,South,182,3.0,9.0,67,-99.99,,,0.00,1-wire,2013-02-06 17:58:00,
2013-02-06 12:03:00,27.7,17.9,30.15,South,182,2.0,5.0,66,-99.99,,,0.00,1-wire,2013-02-06 18:03:00,
2013-02-06 12:09:00,27.9,18.3,30.16,SSE,168,3.0,6.0,67,-99.99,,,0.00,1-wire,2013-02-06 18:09:00,
2013-02-06 12:14:00,28.6,18.2,30.15,SSE,168,1.0,5.0,65,-99.99,,,0.00,1-wire,2013-02-06 18:14:00,
2013-02-06 12:19:00,28.0,18.2,30.15,SSE,168,4.0,11.0,66,-99.99,,,0.00,1-wire,2013-02-06 18:19:00,
2013-02-06 12:24:00,28.1,17.9,30.15,South,180,3.0,6.0,65,-99.99,,,0.00,1-wire,2013-02-06 18:24:00,
2013-02-06 12:30:00,28.7,18.4,30.15,South,180,3.0,9.0,65,-99.99,,,0.00,1-wire,2013-02-06 18:30:00,
2013-02-06 12:35:00,28.9,18.5,30.15,South,180,4.0,6.0,65,-99.99,,,0.00,1-wire,2013-02-06 18:35:00,
2013-02-06 12:40:00,29.8,19.1,30.15,South,185,2.0,6.0,64,-99.99,,,0.00,1-wire,2013-02-06 18:40:00,
2013-02-06 12:46:00,29.9,19.3,30.14,South,185,1.0,3.0,64,-99.99,,,0.00,1-wire,2013-02-06 18:46:00,
2013-02-06 12:51:00,30.0,19.2,30.15,SSW,198,4.0,11.0,64,-99.99,,,0.00,1-wire,2013-02-06 18:51:00,
2013-02-06 12:57:00,31.0,19.8,30.15,SSW,198,1.0,3.0,63,-99.99,,,0.00,1-wire,2013-02-06 18:57:00,
2013-02-06 13:02:00,29.8,19.1,30.14,SSW,198,3.0,8.0,64,-99.99,,,0.00,1-wire,2013-02-06 19:02:00,
2013-02-06 13:07:00,29.5,19.0,30.14,South,187,1.0,3.0,64,-99.99,,,0.00,1-wire,2013-02-06 19:07:00,
2013-02-06 13:12:00,30.0,19.3,30.14,South,187,3.0,9.0,64,-99.99,,,0.00,1-wire,2013-02-06 19:12:00,
2013-02-06 13:18:00,30.3,19.7,30.13,South,187,1.0,3.0,64,-99.99,,,0.00,1-wire,2013-02-06 19:18:00,
2013-02-06 13:23:00,29.5,19.7,30.13,South,185,2.0,5.0,66,-99.99,,,0.00,1-wire,2013-02-06 19:23:00,
2013-02-06 13:28:00,29.7,19.8,30.13,South,185,3.0,6.0,66,-99.99,,,0.00,1-wire,2013-02-06 19:28:00,
2013-02-06 13:33:00,30.2,20.2,30.13,South,185,3.0,6.0,66,-99.99,,,0.00,1-wire,2013-02-06 19:33:00,
2013-02-06 13:38:00,30.3,19.9,30.14,South,188,4.0,6.0,65,-99.99,,,0.00,1-wire,2013-02-06 19:38:00,
2013-02-06 13:43:00,30.3,19.6,30.13,South,188,3.0,6.0,64,-99.99,,,0.00,1-wire,2013-02-06 19:43:00,
2013-02-06 13:49:00,30.0,19.5,30.12,South,188,3.0,6.0,64,-99.99,,,0.00,1-wire,2013-02-06 19:49:00,
2013-02-06 13:55:00,30.0,20.0,30.12,SSW,195,1.0,3.0,66,-99.99,,,0.00,1-wire,2013-02-06 19:55:00,
2013-02-06 14:00:00,30.0,20.1,30.12,SSW,195,3.0,6.0,66,-99.99,,,0.00,1-wire,2013-02-06 20:00:00,
2013-02-06 14:06:00,30.1,20.1,30.12,SSW,199,1.0,6.0,66,-99.99,,,0.00,1-wire,2013-02-06 20:06:00,
2013-02-06 14:11:00,30.9,20.7,30.12,SSW,199,2.0,6.0,65,-99.99,,,0.00,1-wire,2013-02-06 20:11:00,
2013-02-06 14:16:00,31.3,21.0,30.12,SSW,199,2.0,6.0,65,-99.99,,,0.00,1-wire,2013-02-06 20:16:00,
2013-02-06 14:22:00,30.7,20.2,30.12,SSW,192,2.0,3.0,65,-99.99,,,0.00,1-wire,2013-02-06 20:22:00,
2013-02-06 14:27:00,30.8,20.7,30.12,SSW,192,1.0,3.0,66,-99.99,,,0.00,1-wire,2013-02-06 20:27:00,
2013-02-06 14:32:00,31.0,20.8,30.12,SSW,192,1.0,3.0,65,-99.99,,,0.00,1-wire,2013-02-06 20:32:00,
2013-02-06 14:37:00,31.1,20.5,30.12,South,190,3.0,6.0,64,-99.99,,,0.00,1-wire,2013-02-06 20:37:00,
2013-02-06 14:42:00,30.5,20.4,30.11,South,190,3.0,6.0,66,-99.99,,,0.00,1-wire,2013-02-06 20:42:00,
2013-02-06 14:47:00,30.1,20.6,30.12,South,190,2.0,6.0,67,-99.99,,,0.00,1-wire,2013-02-06 20:47:00,
2013-02-06 14:52:00,30.0,20.5,30.11,South,190,1.0,3.0,67,-99.99,,,0.00,1-wire,2013-02-06 20:52:00,
2013-02-06 14:57:00,30.0,20.6,30.11,South,190,2.0,3.0,68,-99.99,,,0.00,1-wire,2013-02-06 20:57:00,
2013-02-06 15:02:00,30.4,20.8,30.11,South,190,1.0,3.0,67,-99.99,,,0.00,1-wire,2013-02-06 21:02:00,
2013-02-06 15:07:00,30.3,20.5,30.12,SSE,163,1.0,3.0,66,-99.99,,,0.00,1-wire,2013-02-06 21:07:00,
2013-02-06 15:12:00,30.7,21.0,30.12,SSE,163,2.0,6.0,67,-99.99,,,0.00,1-wire,2013-02-06 21:12:00,
2013-02-06 15:17:00,31.1,21.4,30.12,SSE,163,2.0,6.0,67,-99.99,,,0.00,1-wire,2013-02-06 21:17:00,
2013-02-06 15:22:00,31.3,21.4,30.12,SSE,168,1.0,3.0,66,-99.99,,,0.00,1-wire,2013-02-06 21:22:00,
2013-02-06 15:27:00,31.0,21.0,30.12,SSE,168,2.0,6.0,66,-99.99,,,0.00,1-wire,2013-02-06 21:27:00,
2013-02-06 15:32:00,31.2,21.8,30.12,SSE,168,2.0,3.0,68,-99.99,,,0.00,1-wire,2013-02-06 21:32:00,
2013-02-06 15:37:00,31.5,21.5,30.11,SSE,161,1.0,3.0,66,-99.99,,,0.00,1-wire,2013-02-06 21:37:00,
2013-02-06 15:42:00,31.4,21.5,30.10,SSE,161,3.0,6.0,66,-99.99,,,0.00,1-wire,2013-02-06 21:42:00,
2013-02-06 15:47:00,31.4,21.7,30.10,SSE,161,2.0,6.0,67,-99.99,,,0.00,1-wire,2013-02-06 21:47:00,
2013-02-06 15:52:00,31.2,21.4,30.10,SSE,161,4.0,12.0,66,-99.99,,,0.00,1-wire,2013-02-06 21:52:00,
2013-02-06 15:57:00,31.4,21.3,30.10,SSE,161,4.0,6.0,66,-99.99,,,0.00,1-wire,2013-02-06 21:57:00,
2013-02-06 16:02:00,31.2,21.2,30.10,SSE,161,2.0,6.0,66,-99.99,,,0.00,1-wire,2013-02-06 22:02:00,
2013-02-06 16:07:00,30.8,21.2,30.10,South,172,3.0,9.0,67,-99.99,,,0.00,1-wire,2013-02-06 22:07:00,
2013-02-06 16:12:00,31.0,21.3,30.10,South,172,1.0,3.0,67,-99.99,,,0.00,1-wire,2013-02-06 22:12:00,
2013-02-06 16:17:00,31.5,22.2,30.10,South,172,1.0,3.0,68,-99.99,,,0.00,1-wire,2013-02-06 22:17:00,
2013-02-06 16:22:00,31.7,22.1,30.10,SSE,167,1.0,6.0,67,-99.99,,,0.00,1-wire,2013-02-06 22:22:00,
2013-02-06 16:27:00,31.6,22.0,30.10,SSE,167,1.0,3.0,67,-99.99,,,0.00,1-wire,2013-02-06 22:27:00,
2013-02-06 16:32:00,30.9,21.4,30.09,SSE,167,3.0,9.0,67,-99.99,,,0.00,1-wire,2013-02-06 22:32:00,
2013-02-06 16:37:00,30.9,21.7,30.08,SSE,156,1.0,5.0,68,-99.99,,,0.00,1-wire,2013-02-06 22:37:00,
2013-02-06 16:42:00,30.7,21.8,30.09,SSE,156,2.0,7.0,69,-99.99,,,0.00,1-wire,2013-02-06 22:42:00,
2013-02-06 16:47:00,30.4,21.8,30.08,SSE,156,0.0,3.0,70,-99.99,,,0.00,1-wire,2013-02-06 22:47:00,
2013-02-06 16:52:00,30.3,21.8,30.07,SSE,161,3.0,6.0,70,-99.99,,,0.00,1-wire,2013-02-06 22:52:00,
2013-02-06 16:57:00,30.1,21.9,30.07,SSE,161,0.0,3.0,71,-99.99,,,0.00,1-wire,2013-02-06 22:57:00,
2013-02-06 17:02:00,29.9,22.0,30.06,SSE,161,3.0,6.0,72,-99.99,,,0.00,1-wire,2013-02-06 23:02:00,
2013-02-06 17:07:00,29.8,21.9,30.07,SSE,154,1.0,3.0,72,-99.99,,,0.00,1-wire,2013-02-06 23:07:00,
2013-02-06 17:13:00,29.8,22.0,30.07,SSE,154,1.0,3.0,72,-99.99,,,0.00,1-wire,2013-02-06 23:13:00,
2013-02-06 17:18:00,29.6,22.1,30.06,SSE,154,3.0,6.0,73,-99.99,,,0.00,1-wire,2013-02-06 23:18:00,
2013-02-06 17:23:00,29.5,22.1,30.06,SE,145,1.0,3.0,74,-99.99,,,0.00,1-wire,2013-02-06 23:23:00,
2013-02-06 17:29:00,29.5,22.2,30.06,SE,145,3.0,8.0,74,-99.99,,,0.00,1-wire,2013-02-06 23:29:00,
2013-02-06 17:34:00,29.5,22.4,30.07,SE,145,1.0,6.0,75,-99.99,,,0.00,1-wire,2013-02-06 23:34:00,
2013-02-06 17:39:00,29.7,22.5,30.07,SE,146,0.0,3.0,74,-99.99,,,0.00,1-wire,2013-02-06 23:39:00,
2013-02-06 17:44:00,29.8,22.4,30.07,SE,146,1.0,3.0,74,-99.99,,,0.00,1-wire,2013-02-06 23:44:00,
2013-02-06 17:50:00,29.8,22.5,30.07,SE,146,1.0,3.0,74,-99.99,,,0.00,1-wire,2013-02-06 23:50:00,
2013-02-06 17:55:00,29.7,22.8,30.07,SSE,149,1.0,3.0,75,-99.99,,,0.00,1-wire,2013-02-06 23:55:00,
2013-02-06 18:00:00,29.8,23.0,30.07,SSE,149,1.0,3.0,75,-99.99,,,0.00,1-wire,2013-02-07 00:00:00,
2013-02-06 18:05:00,29.8,23.2,30.06,SSE,149,1.0,3.0,76,-99.99,,,0.00,1-wire,2013-02-07 00:05:00,
2013-02-06 18:11:00,30.0,23.4,30.07,SSE,153,1.0,6.0,76,-99.99,,,0.00,1-wire,2013-02-07 00:11:00,
2013-02-06 18:16:00,30.2,23.5,30.06,SSE,153,1.0,3.0,76,-99.99,,,0.00,1-wire,2013-02-07 00:16:00,
2013-02-06 18:21:00,30.6,23.8,30.07,SSE,154,2.0,3.0,76,-99.99,,,0.00,1-wire,2013-02-07 00:21:00,
2013-02-06 18:26:00,30.6,23.8,30.07,SSE,154,1.0,3.0,76,-99.99,,,0.00,1-wire,2013-02-07 00:26:00,
2013-02-06 18:32:00,30.7,23.9,30.08,SSE,154,0.0,3.0,76,-99.99,,,0.00,1-wire,2013-02-07 00:32:00,
2013-02-06 18:37:00,30.6,23.8,30.07,SSE,153,1.0,6.0,76,-99.99,,,0.00,1-wire,2013-02-07 00:37:00,
2013-02-06 18:42:00,30.6,23.8,30.07,SSE,153,1.0,3.0,76,-99.99,,,0.00,1-wire,2013-02-07 00:42:00,
2013-02-06 18:47:00,30.8,23.9,30.08,SSE,153,1.0,3.0,75,-99.99,,,0.00,1-wire,2013-02-07 00:47:00,
2013-02-06 18:53:00,30.6,23.9,30.07,SSE,159,1.0,3.0,76,-99.99,,,0.00,1-wire,2013-02-07 00:53:00,
2013-02-06 18:58:00,30.8,24.4,30.07,SSE,159,1.0,3.0,77,-99.99,,,0.00,1-wire,2013-02-07 00:58:00,
2013-02-06 19:03:00,31.0,24.3,30.07,SSE,159,0.0,3.0,76,-99.99,,,0.00,1-wire,2013-02-07 01:03:00,
2013-02-06 19:08:00,31.0,24.4,30.07,ESE,116,1.0,3.0,76,-99.99,,,0.00,1-wire,2013-02-07 01:08:00,
2013-02-06 19:14:00,31.0,24.5,30.07,ESE,116,0.0,3.0,77,-99.99,,,0.00,1-wire,2013-02-07 01:14:00,
2013-02-06 19:20:00,30.8,24.6,30.07,ESE,116,0.0,0.0,77,-99.99,,,0.00,1-wire,2013-02-07 01:20:00,
2013-02-06 19:25:00,30.5,24.6,30.07,ESE,112,0.0,0.0,78,-99.99,,,0.00,1-wire,2013-02-07 01:25:00,
2013-02-06 19:30:00,30.4,24.4,30.07,ESE,112,2.0,6.0,78,-99.99,,,0.00,1-wire,2013-02-07 01:30:00,
2013-02-06 19:35:00,30.7,24.7,30.05,ESE,112,0.0,0.0,78,-99.99,,,0.00,1-wire,2013-02-07 01:35:00,
2013-02-06 19:40:00,30.2,24.3,30.05,ESE,118,3.0,6.0,78,-99.99,,,0.00,1-wire,2013-02-07 01:40:00,
2013-02-06 19:45:00,30.3,24.4,30.05,ESE,118,3.0,6.0,78,-99.99,,,0.00,1-wire,2013-02-07 01:45:00,
2013-02-06 19:50:00,30.2,24.2,30.05,ESE,118,2.0,6.0,78,-99.99,,,0.00,1-wire,2013-02-07 01:50:00,
2013-02-06 19:55:00,30.3,24.4,30.05,ESE,123,2.0,6.0,78,-99.99,,,0.00,1-wire,2013-02-07 01:55:00,
2013-02-06 20:00:00,30.3,24.4,30.05,ESE,123,2.0,6.0,78,-99.99,,,0.00,1-wire,2013-02-07 02:00:00,
2013-02-06 20:05:00,30.4,24.4,30.05,ESE,123,1.0,3.0,78,-99.99,,,0.00,1-wire,2013-02-07 02:05:00,
2013-02-06 20:10:00,30.5,24.4,30.05,SE,146,3.0,8.0,78,-99.99,,,0.00,1-wire,2013-02-07 02:10:00,
2013-02-06 20:15:00,30.4,24.6,30.05,SE,146,1.0,3.0,79,-99.99,,,0.00,1-wire,2013-02-07 02:15:00,
2013-02-06 20:20:00,30.5,24.7,30.04,SE,146,1.0,3.0,79,-99.99,,,0.00,1-wire,2013-02-07 02:20:00,
2013-02-06 20:25:00,30.6,24.8,30.04,SSE,150,1.0,5.0,79,-99.99,,,0.00,1-wire,2013-02-07 02:25:00,
2013-02-06 20:30:00,30.8,25.0,30.03,SSE,150,2.0,5.0,79,-99.99,,,0.00,1-wire,2013-02-07 02:30:00,
2013-02-06 20:35:00,30.7,25.0,30.03,SSE,150,3.0,6.0,79,-99.99,,,0.00,1-wire,2013-02-07 02:35:00,
2013-02-06 20:40:00,31.1,25.4,30.03,SE,144,1.0,3.0,79,-99.99,,,0.00,1-wire,2013-02-07 02:40:00,
2013-02-06 20:45:00,31.3,25.6,30.03,SE,144,1.0,6.0,79,-99.99,,,0.00,1-wire,2013-02-07 02:45:00,
2013-02-06 20:50:00,31.4,25.7,30.03,SE,144,2.0,6.0,79,-99.99,,,0.00,1-wire,2013-02-07 02:50:00,
2013-02-06 20:55:00,31.5,25.9,30.03,SE,143,2.0,6.0,80,-99.99,,,0.00,1-wire,2013-02-07 02:55:00,
2013-02-06 21:00:00,31.7,26.0,30.03,SE,143,0.0,3.0,79,-99.99,,,0.00,1-wire,2013-02-07 03:00:00,
2013-02-06 21:05:00,31.7,26.0,30.03,SE,143,2.0,6.0,79,-99.99,,,0.00,1-wire,2013-02-07 03:05:00,
2013-02-06 21:10:00,31.8,26.2,30.03,SSE,151,2.0,6.0,79,-99.99,,,0.00,1-wire,2013-02-07 03:10:00,
2013-02-06 21:15:00,31.9,26.2,30.03,SSE,151,4.0,6.0,79,-99.99,,,0.00,1-wire,2013-02-07 03:15:00,
2013-02-06 21:20:00,32.2,26.6,30.03,SSE,151,1.0,3.0,79,-99.99,,,0.00,1-wire,2013-02-07 03:20:00,
2013-02-06 21:25:00,32.2,26.5,30.03,SSE,163,3.0,6.0,79,-99.99,,,0.00,1-wire,2013-02-07 03:25:00,
2013-02-06 21:30:00,32.2,26.5,30.03,SSE,163,2.0,3.0,79,-99.99,,,0.00,1-wire,2013-02-07 03:30:00,
2013-02-06 21:35:00,32.3,26.8,30.03,SSE,163,1.0,6.0,80,-99.99,,,0.00,1-wire,2013-02-07 03:35:00,
2013-02-06 21:40:00,32.4,26.9,30.03,SSE,164,0.0,3.0,80,-99.99,,,0.00,1-wire,2013-02-07 03:40:00,
2013-02-06 21:45:00,32.3,26.8,30.03,SSE,164,1.0,3.0,80,-99.99,,,0.00,1-wire,2013-02-07 03:45:00,
2013-02-06 21:50:00,32.5,27.0,30.02,SSE,164,2.0,6.0,80,-99.99,,,0.00,1-wire,2013-02-07 03:50:00,
2013-02-06 21:55:00,32.8,27.3,30.03,SSE,164,1.0,3.0,80,-99.99,,,0.00,1-wire,2013-02-07 03:55:00,
2013-02-06 22:00:00,33.0,27.5,30.03,SSE,164,1.0,3.0,80,-99.99,,,0.00,1-wire,2013-02-07 04:00:00,
2013-02-06 22:05:00,33.1,27.7,30.04,SSE,164,1.0,6.0,80,-99.99,,,0.00,1-wire,2013-02-07 04:05:00,
2013-02-06 22:10:00,33.7,28.2,30.04,SSE,163,0.0,0.0,80,-99.99,,,0.00,1-wire,2013-02-07 04:10:00,
2013-02-06 22:15:00,33.6,28.1,30.04,SSE,163,1.0,3.0,80,-99.99,,,0.00,1-wire,2013-02-07 04:15:00,
2013-02-06 22:20:00,34.0,28.5,30.05,SSE,163,1.0,3.0,80,-99.99,,,0.00,1-wire,2013-02-07 04:20:00,
2013-02-06 22:25:00,33.9,28.6,30.05,South,172,0.0,0.0,80,-99.99,,,0.00,1-wire,2013-02-07 04:25:00,
2013-02-06 22:30:00,34.0,28.5,30.04,South,172,0.0,0.0,80,-99.99,,,0.00,1-wire,2013-02-07 04:30:00,
2013-02-06 22:36:00,34.1,28.7,30.04,SE,144,0.0,0.0,81,-99.99,,,0.00,1-wire,2013-02-07 04:36:00,
2013-02-06 22:41:00,33.9,28.6,30.04,SE,144,0.0,0.0,81,-99.99,,,0.00,1-wire,2013-02-07 04:41:00,
2013-02-06 22:46:00,33.9,28.8,30.03,SE,144,0.0,0.0,81,-99.99,,,0.00,1-wire,2013-02-07 04:46:00,
2013-02-06 22:51:00,33.8,28.5,30.04,SE,146,0.0,0.0,81,-99.99,,,0.00,1-wire,2013-02-07 04:51:00,
2013-02-06 22:56:00,33.5,28.3,30.03,SE,146,0.0,0.0,81,-99.99,,,0.00,1-wire,2013-02-07 04:56:00,
2013-02-06 23:00:00,33.9,28.7,30.03,SE,146,0.0,0.0,81,-99.99,,,0.00,1-wire,2013-02-07 05:00:00,
2013-02-06 23:01:00,33.8,28.7,30.03,SE,146,0.0,0.0,81,-99.99,,,0.00,1-wire,2013-02-07 05:01:00,
2013-02-06 23:03:00,33.6,28.4,30.03,SE,146,0.0,0.0,81,-99.99,,,0.00,1-wire,2013-02-07 05:03:00,
2013-02-06 23:04:00,33.6,28.5,30.03,SE,146,0.0,0.0,81,-99.99,,,0.00,1-wire,2013-02-07 05:04:00,
2013-02-06 23:09:00,34.1,29.0,30.04,SE,127,0.0,0.0,81,-99.99,,,0.00,1-wire,2013-02-07 05:09:00,
2013-02-06 23:15:00,33.9,28.9,30.04,SE,127,0.0,0.0,82,-99.99,,,0.00,1-wire,2013-02-07 05:15:00,
2013-02-06 23:21:00,33.5,28.4,30.03,ESE,122,0.0,0.0,81,-99.99,,,0.00,1-wire,2013-02-07 05:21:00,
2013-02-06 23:27:00,33.2,28.4,30.04,ESE,122,0.0,0.0,82,-99.99,,,0.00,1-wire,2013-02-07 05:27:00,
2013-02-06 23:32:00,33.4,28.8,30.04,ESE,122,0.0,0.0,83,-99.99,,,0.00,1-wire,2013-02-07 05:32:00,
2013-02-06 23:37:00,33.0,28.4,30.03,ESE,117,0.0,0.0,83,-99.99,,,0.00,1-wire,2013-02-07 05:37:00,
2013-02-06 23:42:00,32.9,28.3,30.03,ESE,117,0.0,0.0,83,-99.99,,,0.00,1-wire,2013-02-07 05:42:00,
2013-02-06 23:47:00,33.0,28.4,30.04,ESE,117,0.0,0.0,83,-99.99,,,0.00,1-wire,2013-02-07 05:47:00,
2013-02-06 23:53:00,33.1,28.5,30.03,SE,127,0.0,0.0,83,-99.99,,,0.00,1-wire,2013-02-07 05:53:00,
2013-02-06 23:59:00,33.5,28.8,30.04,SE,127,0.0,0.0,83,-99.99,,,0.00,1-wire,2013-02-07 05:59:00,